Location: Unspecified
(48.8656°N, 0.0000°E)
Time: 06:17:12
(UTC+00:00)

Transit 2A Rocket - Pass Details

Date: 21 June 2019
Orbit: 588 x 915 km, 66.7° (Epoch: 15 July)

Event Time Altitude Azimuth Distance (km) Brightness Sun altitude
Rises 16:25:58 0° 322° (NW) 3,426 8.8 33.0°
Reaches altitude 10° 16:29:23 10° 341° (NNW) 2,428 7.9 32.4°
Maximum altitude 16:33:05 18° 23° (NNE) 1,870 7.0 31.8°
Drops below altitude 10° 16:36:36 10° 65° (ENE) 2,275 7.1 31.3°
Sets 16:39:39 0° 85° (E) 3,126 7.6 30.8°
